Weather in Sorochkino

Russia / Tyumen Oblast     56°58′48″N   68°50′55″E
temp.,
°C
wind,
m/s
gust,
m/s
humid.,
%
clouds,
%
prec.,
mm/h
press.,
hPa
HPBL,
m
4 march, thu
thu423:00−7ssw499497 0.1 1002291
02:00−8ssw4995100 0.0 1001226
05:00−9s389698 0.1 1000161
08:00−5ssw499599 0.3 999399
11:00−3ssw479397 0.3 998520
14:00−2ssw4691100 0.1 997620
17:00−2ssw3697100 0.4 996424
20:00−5wsw4993100 0.3 996244
5 march, fri
fri523:00−8sw499589 0.3 997174
02:00−7wsw5119391 0.1 998401
05:00−12sw499260 0.1 1000167
08:00−11ssw6139294 0.0 999431
11:00−6ssw8139097 0.9 997919
14:00−1sw81492100 0.3 9961197
17:00−1wsw61382100 1.1 9971091
20:00−5sw5148444 0.0 998360
6 march, sat
sat623:00−7sw4108554 0.0 1000222
02:00−9sw488849 0.0 1000154
05:00−9wsw499174 0.0 1002256
08:00−12wsw5119453 0.0 1002302
11:00−9wsw6119069 0.0 1005550
14:00−7w7117925 0.0 10061008
17:00−8wsw5108528 0.0 1008670
20:00−12wsw4129227 0.0 1009293
7 march, sun
sun723:00−14sw4109419 0.0 1010209
02:00−15sw37950 0.0 1010110
05:00−15ssw359550 0.0 100985
08:00−14s2493100 0.0 100895
11:00−9sse1189100 0.1 1007307
14:00−8nne2290100 0.1 1006359
17:00−7n2492100 0.3 1005405
20:00−11nnw339699 0.1 100764
8 march, mon
mon823:00−15nw239690 0.1 100921
02:00−18wnw239539 0.0 101020
05:00−19w239828 0.0 101120
08:00−19wsw239530 0.0 101230
11:00−13wsw249127 0.0 1012316
14:00−10sw358898 0.0 1012605
17:00−11s479099 0.1 1012503
20:00−12s51193100 0.1 1011408